Weather History for Watsonville, CA

Change the Weather History Date:

Wednesday, October 20, 2010

  Actual Average Record
Temperature  
Mean Temperature 58 °F 60 °F  
Max Temperature 64 °F 72 °F 85 °F (2006)
Min Temperature 51 °F 48 °F 45 °F (1999)
Degree Days  
Heating Degree Days 7    
Month to date heating degree days 72  
Since 1 July heating degree days 404  
Cooling Degree Days 0    
Month to date cooling degree days 17  
Year to date cooling degree days 128  
Growing Degree Days 7 (Base 50)    
Moisture  
Dew Point 52 °F    
Average Humidity 86    
Maximum Humidity 100    
Minimum Humidity 72    
Precipitation  
Precipitation 0.00 in - 0.62 in (1979)
Month to date precipitation 0.12  
Year to date precipitation 11.85  
Since 1 July precipitation 0.13  
Sea Level Pressure  
Sea Level Pressure 29.99 in    
Wind  
Wind Speed 3 mph (SW)    
Max Wind Speed 14 mph    
Max Gust Speed 16 mph    
Visibility 5 miles    
Events Fog    
T = Trace of Precipitation, MM = Missing Value Source: NWS Daily Summary

Daily Weather History Graph

Daily Weather History Graph

Search for Another Location

Airport:

Trip Planner

Search our weather history database for the weather conditions in past years. The results will help you decide how hot, cold, wet, or windy it might be!

Date:

Astronomy

Oct. 20, 2010 Rise Set
Actual Time 7:19 AM PDT 6:23 PM PDT
Civil Twilight 6:53 AM PDT 6:50 PM PDT
Nautical Twilight 6:22 AM PDT 7:20 PM PDT
Astronomical Twilight 5:52 AM PDT 7:50 PM PDT
Moon 4:58 PM PDT (10/20) 5:08 AM PDT (10/20)
Length of Visible Light 11h 56m
Length of Day
11h 04m
Waxing Gibbous, 95% of the Moon is Illuminated
Oct 20
Waxing Gibbous
Oct 22
Full
Oct 30
Last Quarter
Nov 5
New
Nov 13
First Quarter

Hourly Weather History & Observations

Time (PDT) Temp. Dew Point Humidity Pressure Visibility Wind Dir Wind Speed Gust Speed Precip Events Conditions
12:07 AM 53.6 °F 53.6 °F 100% 29.94 in 1.0 mi Calm Calm - N/A   Overcast
12:53 AM 53.1 °F 52.0 °F 96% 29.94 in 1.0 mi Calm Calm - N/A   Overcast
1:16 AM 53.6 °F 51.8 °F 94% 29.95 in 0.8 mi East 3.5 mph - N/A   Overcast
1:34 AM 53.6 °F 51.8 °F 94% 29.95 in 1.2 mi SE 4.6 mph - N/A   Overcast
1:46 AM 51.8 °F 51.8 °F 100% 29.96 in 0.8 mi Calm Calm - N/A   Overcast
1:53 AM 52.0 °F 52.0 °F 100% 29.96 in 0.8 mi ESE 3.5 mph - N/A   Overcast
2:05 AM 51.8 °F 51.8 °F 100% 29.96 in 0.5 mi SSE 3.5 mph - N/A Fog Fog
2:53 AM 52.0 °F 52.0 °F 100% 29.95 in 0.5 mi Calm Calm - N/A Fog Fog
3:53 AM 52.0 °F 52.0 °F 100% 29.96 in 0.5 mi Calm Calm - N/A Fog Fog
4:22 AM 51.8 °F 51.8 °F 100% 29.96 in 1.0 mi Calm Calm - N/A   Overcast
4:32 AM 51.8 °F 51.8 °F 100% 29.95 in 0.8 mi Calm Calm - N/A   Overcast
4:53 AM 52.0 °F 51.1 °F 97% 29.95 in 1.0 mi Calm Calm - N/A   Overcast
5:13 AM 51.8 °F 51.8 °F 100% 29.95 in 2.0 mi Calm Calm - N/A   Overcast
5:21 AM 51.8 °F 51.8 °F 100% 29.95 in 1.2 mi WSW 3.5 mph - N/A   Overcast
5:53 AM 51.1 °F 51.1 °F 100% 29.96 in 0.8 mi Calm Calm - N/A   Overcast
6:53 AM 52.0 °F 51.1 °F 97% 29.98 in 0.8 mi Calm Calm - N/A   Overcast
7:05 AM 51.8 °F 51.8 °F 100% 29.98 in 1.0 mi NE 3.5 mph - N/A   Overcast
7:22 AM 51.8 °F 51.8 °F 100% 29.98 in 1.5 mi Calm Calm - N/A   Overcast
7:39 AM 51.8 °F 51.8 °F 100% 29.97 in 0.8 mi Calm Calm - N/A   Overcast
7:53 AM 52.0 °F 51.1 °F 97% 29.98 in 0.2 mi Calm Calm - N/A Fog Fog
8:41 AM 51.8 °F 51.8 °F 100% 29.98 in 0.5 mi Calm Calm - N/A Fog Fog
8:53 AM 52.0 °F 51.1 °F 97% 29.98 in 0.2 mi Calm Calm - N/A Fog Fog
9:21 AM 51.8 °F 51.8 °F 100% 29.97 in 0.5 mi Calm Calm - N/A Fog Fog
9:48 AM 53.6 °F 51.8 °F 94% 29.98 in 1.5 mi Calm Calm - N/A   Overcast
9:49 AM 53.1 °F 52.0 °F 96% 29.99 in 1.8 mi Calm Calm - N/A   Overcast
9:55 AM 53.6 °F 51.8 °F 94% 29.99 in 3.0 mi SE 3.5 mph - N/A   Overcast
10:06 AM 53.6 °F 51.8 °F 94% 29.99 in 2.5 mi Calm Calm - N/A   Overcast
10:08 AM 53.6 °F 51.8 °F 94% 29.99 in 3.0 mi Calm Calm - N/A   Overcast
10:53 AM 54.0 °F 52.0 °F 93% 29.99 in 4.0 mi Calm Calm - N/A   Overcast
11:16 AM 55.4 °F 51.8 °F 88% 29.99 in 5.0 mi Calm Calm - N/A   Overcast
11:32 AM 59.0 °F 51.8 °F 77% 29.98 in 7.0 mi WNW 5.8 mph - N/A   Mostly Cloudy
11:50 AM 59.0 °F 53.6 °F 82% 29.99 in 7.0 mi WSW 4.6 mph - N/A   Partly Cloudy
11:53 AM 59.0 °F 53.1 °F 81% 29.99 in 7.0 mi Calm Calm - N/A   Partly Cloudy
12:53 PM 63.0 °F 53.1 °F 70% 29.96 in 10.0 mi WSW 5.8 mph - N/A   Clear
1:53 PM 63.0 °F 53.1 °F 70% 29.95 in 10.0 mi South 6.9 mph - N/A   Clear
2:53 PM 62.1 °F 53.1 °F 72% 29.97 in 10.0 mi SW 9.2 mph - N/A   Clear
3:29 PM 57.2 °F 51.8 °F 82% 29.99 in 10.0 mi SW 8.1 mph - N/A   Mostly Cloudy
3:53 PM 57.9 °F 52.0 °F 81% 30.00 in 10.0 mi SW 10.4 mph - N/A   Overcast
4:53 PM 57.0 °F 52.0 °F 83% 30.01 in 10.0 mi SW 9.2 mph - N/A   Overcast
5:53 PM 55.9 °F 52.0 °F 87% 30.01 in 9.0 mi SW 8.1 mph - N/A   Mostly Cloudy
6:02 PM 55.4 °F 51.8 °F 88% 30.01 in 9.0 mi West 4.6 mph - N/A   Mostly Cloudy
6:53 PM 54.0 °F 51.1 °F 90% 30.03 in 9.0 mi SSW 6.9 mph - N/A   Mostly Cloudy
7:11 PM 53.6 °F 51.8 °F 94% 30.04 in 8.0 mi Calm Calm - N/A   Scattered Clouds
7:32 PM 55.4 °F 51.8 °F 88% 30.04 in 10.0 mi Variable 6.9 mph - N/A   Mostly Cloudy
7:45 PM 55.4 °F 51.8 °F 88% 30.05 in 10.0 mi WSW 5.8 mph - N/A   Overcast
7:53 PM 55.9 °F 51.1 °F 84% 30.05 in 10.0 mi West 4.6 mph - N/A   Overcast
8:53 PM 55.9 °F 51.1 °F 84% 30.06 in 9.0 mi Calm Calm - N/A   Overcast
9:53 PM 55.0 °F 51.1 °F 86% 30.07 in 9.0 mi North 3.5 mph - N/A   Overcast
10:27 PM 55.4 °F 51.8 °F 88% 30.07 in 9.0 mi Calm Calm - N/A   Overcast
10:53 PM 55.0 °F 51.1 °F 86% 30.08 in 9.0 mi Calm Calm - N/A   Overcast
11:53 PM 55.0 °F 51.1 °F 86% 30.08 in 10.0 mi Calm Calm - N/A   Overcast